FW9036 Weather Reports


time (UTC)temp
F
wind
direction
speed
knots
gust
knots
rain 1hr
in
rain 24hr
in
rain mn
in
humidity
%
barometer
mb
20260505083631 59 90 0.0 1.7 0.00 0.00 0.00 86 1017.1
20260505083127 59 99 0.0 0.9 0.00 0.00 0.00 86 1017.1
20260505082623 59 90 0.0 1.7 0.00 0.00 0.00 86 1017.0
20260505082120 59 90 0.0 0.0 0.00 0.00 0.00 85 1016.9
20260505081616 59 99 0.0 0.9 0.00 0.00 0.00 85 1016.8
20260505081114 60 96 0.9 1.7 0.00 0.00 0.00 85 1016.9
20260505080610 59 106 0.9 0.9 0.00 0.00 0.00 85 1017.2
20260505080106 59 90 0.0 0.9 0.00 0.00 0.00 85 1017.1
20260505075602 59 114 0.9 1.7 0.00 0.00 0.00 85 1017.0
20260505075059 59 114 0.0 0.0 0.00 0.00 0.00 85 1017.1
20260505074556 60 74 0.9 1.7 0.00 0.00 0.00 85 1017.0
20260505074053 60 120 0.9 0.9 0.00 0.00 0.00 84 1017.1
20260505073550 60 106 0.0 0.9 0.00 0.00 0.00 84 1017.3
20260505073049 60 117 0.0 1.7 0.00 0.00 0.00 84 1017.2
20260505072549 60 117 0.9 1.7 0.00 0.00 0.00 84 1017.1
20260505072046 60 117 0.9 1.7 0.00 0.00 0.00 84 1017.1
20260505071541 60 114 0.0 1.7 0.00 0.00 0.00 84 1017.1
20260505071040 60 123 1.7 1.7 0.00 0.00 0.00 84 1017.2
20260505070537 60 99 0.0 0.9 0.00 0.00 0.00 84 1017.5
20260505070033 60 106 0.0 0.9 0.00 0.00 0.00 84 1017.4
20260505065529 60 105 0.9 1.7 0.00 0.00 0.00 84 1017.6
20260505065026 59 103 0.0 0.9 0.00 0.00 0.00 83 1017.6
20260505064523 60 81 0.0 0.9 0.00 0.00 0.00 83 1017.7
20260505064021 60 90 0.9 1.7 0.00 0.00 0.00 83 1017.6
20260505063518 60 120 0.0 0.9 0.00 0.00 0.00 83 1017.6
20260505063014 60 99 0.0 1.7 0.00 0.00 0.00 83 1017.4
20260505062511 60 99 0.0 0.9 0.00 0.00 0.00 83 1017.7
20260505062008 60 90 0.0 0.9 0.00 0.00 0.00 83 1017.8
20260505061506 60 99 0.0 0.9 0.00 0.00 0.00 83 1018.0
20260505061003 60 106 0.9 0.9 0.00 0.00 0.00 83 1017.7
20260505060500 60 90 0.0 0.9 0.00 0.00 0.00 83 1018.0
20260505055956 60 74 0.0 0.9 0.00 0.00 0.00 82 1018.0
20260505055452 60 90 0.0 0.9 0.00 0.00 0.00 82 1018.1
20260505054949 61 123 1.7 1.7 0.00 0.00 0.00 82 1017.9
20260505054447 61 97 0.0 0.9 0.00 0.00 0.00 82 1017.9
20260505053945 61 114 0.9 0.9 0.00 0.00 0.00 81 1018.1
20260505053441 61 90 0.0 0.9 0.00 0.00 0.00 81 1018.2
20260505052938 61 90 0.0 0.9 0.00 0.00 0.00 81 1018.3
20260505052435 61 98 0.9 1.7 0.00 0.00 0.00 81 1018.5
20260505051932 61 81 0.0 0.0 0.00 0.00 0.00 81 1018.4
20260505051429 62 97 0.0 1.7 0.00 0.00 0.00 81 1018.7
20260505050927 61 98 0.0 0.9 0.00 0.00 0.00 81 1018.6
20260505050425 61 111 0.0 1.7 0.00 0.00 0.00 81 1018.7
20260505041353 62 99 0.0 0.0 0.00 0.00 0.00 79 1018.6
20260505040850 62 99 0.0 0.9 0.00 0.00 0.00 79 1018.9
20260505040348 62 90 0.0 0.9 0.00 0.00 0.00 78 1018.9
20260505035844 62 90 0.0 0.9 0.00 0.00 0.00 78 1018.8
20260505035340 62 90 0.0 0.0 0.00 0.00 0.00 78 1018.9
20260505034837 63 81 0.0 0.9 0.00 0.00 0.00 77 1018.9
20260505034334 63 106 0.0 0.0 0.00 0.00 0.00 77 1018.7
20260505033831 63 106 0.0 0.0 0.00 0.00 0.00 76 1018.9
20260505033328 63 90 0.0 0.0 0.00 0.00 0.00 75 1018.7
20260505032826 64 90 0.0 0.0 0.00 0.00 0.00 75 1018.7
20260505032322 64 90 0.0 0.0 0.00 0.00 0.00 75 1018.8
20260505031820 64 90 0.0 0.0 0.00 0.00 0.00 75 1018.7
20260505031316 65 140 0.0 0.0 0.00 0.00 0.00 74 1018.8
20260505030813 65 106 0.0 0.0 0.00 0.00 0.00 74 1019.0
20260505030310 65 106 0.0 0.0 0.00 0.00 0.00 74 1019.0
20260505025804 65 106 0.0 0.0 0.00 0.00 0.00 74 1018.8
20260505025304 66 106 0.0 0.0 0.00 0.00 0.00 74 1018.9
20260505024801 66 99 0.0 0.9 0.00 0.00 0.00 74 1018.7
20260505024258 66 96 0.0 1.7 0.00 0.00 0.00 73 1018.5
20260505023755 66 98 0.9 0.9 0.00 0.00 0.00 74 1018.6
20260505023252 66 90 0.0 0.9 0.00 0.00 0.00 73 1018.6
20260505022749 66 99 0.0 0.9 0.00 0.00 0.00 73 1018.7
20260505022246 66 98 0.9 0.9 0.00 0.00 0.00 73 1018.5
20260505021743 66 97 0.0 0.0 0.00 0.00 0.00 73 1018.7
20260505021240 67 126 0.0 1.7 0.00 0.00 0.00 73 1018.6
20260505020735 67 98 0.9 0.9 0.00 0.00 0.00 73 1018.6
20260505020231 67 114 0.0 0.9 0.00 0.00 0.00 73 1018.4
20260505015729 67 106 0.9 1.7 0.00 0.00 0.00 73 1018.6
20260505015225 67 117 1.7 1.7 0.00 0.00 0.00 72 1018.7
20260505014722 68 107 0.0 1.7 0.00 0.00 0.00 72 1018.4
20260505014220 68 126 0.9 1.7 0.00 0.00 0.00 72 1018.5
20260505013716 68 188 0.0 3.5 0.00 0.00 0.00 72 1018.5
20260505013213 68 111 0.0 0.9 0.00 0.00 0.00 72 1018.4
20260505012712 68 165 0.0 1.7 0.00 0.00 0.00 71 1018.4
20260505012209 68 168 0.0 0.9 0.00 0.00 0.00 71 1018.6
20260505011704 69 90 0.0 0.9 0.00 0.00 0.00 71 1018.5
20260505011202 69 103 0.9 1.7 0.00 0.00 0.00 71 1018.4
20260505010657 69 109 0.0 1.7 0.00 0.00 0.00 70 1018.3
20260505010154 69 117 0.0 2.6 0.00 0.00 0.00 70 1018.3
20260505005650 69 109 0.0 1.7 0.00 0.00 0.00 70 1018.2
20260505005147 69 109 0.9 1.7 0.00 0.00 0.00 69 1018.4
20260505004644 70 98 0.0 1.7 0.00 0.00 0.00 69 1018.3
20260505004141 70 98 0.9 4.3 0.00 0.00 0.00 68 1018.2
20260505003638 70 117 0.9 2.6 0.00 0.00 0.00 68 1018.2
20260505003136 70 114 0.9 1.7 0.00 0.00 0.00 67 1018.0
20260505002631 70 90 0.9 3.5 0.00 0.00 0.00 67 1018.0
20260505002130 70 97 0.9 4.3 0.00 0.00 0.00 67 1018.1
20260505001626 71 180 0.9 5.2 0.00 0.00 0.00 67 1017.8
20260505001124 71 105 1.7 1.7 0.00 0.00 0.00 67 1018.0
20260505000621 71 114 1.7 2.6 0.00 0.00 0.00 66 1017.9
20260505000119 72 109 0.9 1.7 0.00 0.00 0.00 66 1017.9
20260504235615 72 157 1.7 1.7 0.00 0.00 0.00 65 1018.0
20260504235112 72 129 1.7 4.3 0.00 0.00 0.00 65 1017.6
20260504234609 73 106 1.7 4.3 0.00 0.00 0.00 64 1017.4
20260504234106 73 90 0.9 3.5 0.00 0.00 0.00 63 1017.4
20260504233601 74 100 1.7 3.5 0.00 0.00 0.00 63 1017.7
20260504233058 74 97 0.9 2.6 0.00 0.00 0.00 62 1017.7
20260504232555 74 161 2.6 3.5 0.00 0.00 0.00 62 1017.4
20260504232053 74 113 1.7 4.3 0.00 0.00 0.00 61 1017.6
20260504231549 75 129 1.7 5.2 0.00 0.00 0.00 61 1017.6
20260504231045 75 90 1.7 3.5 0.00 0.00 0.00 59 1017.6
20260504230541 76 101 0.0 5.2 0.00 0.00 0.00 60 1017.4
20260504230041 76 125 2.6 3.5 0.00 0.00 0.00 59 1017.6
20260504225537 75 98 2.6 7.0 0.00 0.00 0.00 60 1017.5
20260504225034 77 114 3.5 4.3 0.00 0.00 0.00 59 1017.6
20260504224531 75 93 3.5 7.0 0.00 0.00 0.00 59 1017.2
20260504224028 76 120 4.3 5.2 0.00 0.00 0.00 58 1017.4
20260504223525 77 90 0.9 5.2 0.00 0.00 0.00 58 1017.2
20260504223021 76 114 4.3 9.6 0.00 0.00 0.00 58 1017.8
20260504222518 77 81 1.7 4.3 0.00 0.00 0.00 57 1017.3
20260504222015 78 90 1.7 5.2 0.00 0.00 0.00 57 1017.4
20260504221512 79 94 2.6 4.3 0.00 0.00 0.00 56 1017.7
20260504221009 80 142 5.2 5.2 0.00 0.00 0.00 54 1017.5
20260504220506 78 124 1.7 3.5 0.00 0.00 0.00 56 1017.5
20260504220003 78 49 2.6 6.1 0.00 0.00 0.00 57 1017.5
20260504215459 77 90 1.7 3.5 0.00 0.00 0.00 59 1017.4
20260504214956 78 78 3.5 4.3 0.00 0.00 0.00 56 1017.5
20260504214452 80 66 3.5 5.2 0.00 0.00 0.00 54 1017.5
20260504213949 79 98 2.6 4.3 0.00 0.00 0.00 57 1017.4
20260504213445 80 105 2.6 5.2 0.00 0.00 0.00 55 1017.5
20260504212943 81 99 1.7 3.5 0.00 0.00 0.00 54 1017.7
20260504212438 79 133 4.3 5.2 0.00 0.00 0.00 56 1017.7
20260504211936 78 70 3.5 5.2 0.00 0.00 0.00 55 1017.9
20260504211432 77 119 1.7 7.8 0.00 0.00 0.00 57 1017.6
20260504210930 77 133 2.6 5.2 0.00 0.00 0.00 55 1017.8
20260504210426 79 63 0.9 7.8 0.00 0.00 0.00 54 1017.6
20260504205924 76 140 2.6 7.0 0.00 0.00 0.00 56 1017.9
20260504205421 77 139 1.7 6.1 0.00 0.00 0.00 55 1018.0
20260504204919 76 106 0.0 6.1 0.00 0.00 0.00 56 1017.9
20260504204417 77 90 2.6 8.7 0.00 0.00 0.00 55 1017.9
20260504203917 78 65 6.1 6.1 0.00 0.00 0.00 53 1017.9
20260504203414 76 101 2.6 7.8 0.00 0.00 0.00 54 1018.0
20260504202909 78 90 3.5 6.1 0.00 0.00 0.00 52 1018.1
20260504202406 77 144 2.6 5.2 0.00 0.00 0.00 53 1017.7
20260504201903 78 82 2.6 7.0 0.00 0.00 0.00 53 1017.9
20260504201400 78 84 2.6 6.1 0.00 0.00 0.00 52 1018.2
20260504200857 79 90 1.7 6.1 0.00 0.00 0.00 51 1018.2
20260504200354 80 76 6.1 7.0 0.00 0.00 0.00 50 1018.0
20260504195851 79 68 1.7 5.2 0.00 0.00 0.00 48 1018.2
20260504195346 79 61 2.6 7.0 0.00 0.00 0.00 50 1018.1
20260504194843 80 109 2.6 8.7 0.00 0.00 0.00 49 1018.0
20260504194339 79 80 3.5 6.1 0.00 0.00 0.00 49 1018.1
20260504193835 80 80 3.5 9.6 0.00 0.00 0.00 48 1018.1
20260504193333 79 68 3.5 8.7 0.00 0.00 0.00 49 1018.3
20260504192831 80 67 2.6 7.8 0.00 0.00 0.00 48 1018.5
20260504192329 80 54 5.2 7.0 0.00 0.00 0.00 47 1018.3
20260504191827 80 64 3.5 5.2 0.00 0.00 0.00 46 1018.7
20260504191324 80 74 2.6 9.6 0.00 0.00 0.00 47 1018.5
20260504190820 82 62 7.8 7.8 0.00 0.00 0.00 46 1018.5
20260504190316 81 69 3.5 5.2 0.00 0.00 0.00 47 1018.4
20260504185813 80 109 0.9 7.0 0.00 0.00 0.00 48 1018.8
20260504185310 80 74 7.8 7.8 0.00 0.00 0.00 46 1018.8
20260504184806 80 71 2.6 6.1 0.00 0.00 0.00 44 1018.6
20260504184302 80 62 3.5 6.1 0.00 0.00 0.00 45 1018.8
20260504183757 80 86 2.6 8.7 0.00 0.00 0.00 47 1019.1
20260504183254 79 72 3.5 5.2 0.00 0.00 0.00 43 1019.1
20260504182753 79 72 1.7 9.6 0.00 0.00 0.00 48 1019.2
20260504182249 80 65 3.5 5.2 0.00 0.00 0.00 44 1019.2
20260504181747 80 79 4.3 7.8 0.00 0.00 0.00 43 1019.1
20260504181244 79 84 1.7 6.1 0.00 0.00 0.00 43 1019.4
20260504180743 78 73 5.2 7.8 0.00 0.00 0.00 47 1019.2
20260504180242 79 59 2.6 6.1 0.00 0.00 0.00 45 1019.1
20260504175739 78 36 6.1 9.6 0.00 0.00 0.00 43 1019.2
20260504175235 79 65 1.7 5.2 0.00 0.00 0.00 44 1019.4
20260504174733 79 85 1.7 8.7 0.00 0.00 0.00 45 1019.4
20260504174231 80 41 5.2 5.2 0.00 0.00 0.00 42 1019.2
20260504173727 78 82 4.3 7.0 0.00 0.00 0.00 44 1019.4
20260504173224 78 75 2.6 7.8 0.00 0.00 0.00 44 1019.6
20260504172721 77 64 4.3 7.8 0.00 0.00 0.00 44 1019.5
20260504172217 77 49 4.3 7.0 0.00 0.00 0.00 43 1019.9
20260504171714 77 64 0.0 5.2 0.00 0.00 0.00 44 1019.6
20260504171211 78 66 4.3 4.3 0.00 0.00 0.00 43 1019.8
20260504170708 76 54 6.1 7.8 0.00 0.00 0.00 43 1020.0
20260504170206 77 35 4.3 7.8 0.00 0.00 0.00 40 1020.0
20260504160124 77 52 2.6 5.2 0.00 0.00 0.00 39 1020.3
20260504151051 74 60 1.7 4.3 0.00 0.00 0.00 44 1020.4
20260504150548 75 90 0.9 4.3 0.00 0.00 0.00 45 1020.1
20260504141014 72 82 0.9 1.7 0.00 0.00 0.00 48 1020.5
20260504140511 72 83 0.0 1.7 0.00 0.00 0.00 48 1020.4
20260504130435 68 90 0.0 1.7 0.00 0.00 0.00 67 1020.5
20260504110322 56 99 0.0 0.0 0.00 0.00 0.00 92 1019.5
20260504100240 57 90 0.0 0.0 0.00 0.00 0.00 92 1019.0